When you browse on this site, cookies collect data to enhance your experience and personalize the content and advertising you see.
Visit our Privacy Policy to learn more. By continuing to use the site, you agree to this use of cookies and data.
  • In Romania
  • List of Countries
  • For 7 days
  • Water Temperature
  • Satellite Maps
  • Weather Map
  • Weather Widgets
  • user-avatar
    Login

    Hourly Weather Gisborne

    Today, 19 July, Friday

    Time Temperature Precipitation Wind Pressure Humidity
    00:00 +7°C° 0 mm 2 mps 754 mmHg 93%
    01:00 +7°C° 0 mm 2 mps 754 mmHg 93%
    02:00 +7°C° 0 mm 2 mps 753 mmHg 94%
    03:00 +7°C° 0 mm 2 mps 753 mmHg 94%
    04:00 +7°C° 0 mm 2 mps 753 mmHg 95%
    05:00 +7°C° 0 mm 2 mps 753 mmHg 96%
    06:00 +8°C° 0 mm 1 mps 752 mmHg 96%
    07:00 +9°C° 0 mm 1 mps 752 mmHg 92%
    08:00 +9°C° 0 mm 2 mps 752 mmHg 89%
    09:00 +10°C° 0 mm 2 mps 752 mmHg 86%
    10:00 +13°C° 0 mm 2 mps 751 mmHg 79%
    11:00 +14°C° 0 mm 3 mps 751 mmHg 72%
    12:00 +17°C° 0 mm 3 mps 750 mmHg 65%
    13:00 +17°C° 0 mm 4 mps 749 mmHg 65%
    14:00 +17°C° 0 mm 4 mps 749 mmHg 66%
    15:00 +16°C° 0 mm 5 mps 748 mmHg 66%
    16:00 +15°C° 0.5 mm 4 mps 748 mmHg 76%
    17:00 +13°C° 0.5 mm 3 mps 747 mmHg 87%
    18:00 +13°C° 0.5 mm 2 mps 747 mmHg 97%
    19:00 +11°C° 0.4 mm 3 mps 747 mmHg 97%
    20:00 +11°C° 0.4 mm 3 mps 747 mmHg 98%
    21:00 +11°C° 0.4 mm 3 mps 747 mmHg 98%
    22:00 +11°C° 0.9 mm 3 mps 747 mmHg 98%
    23:00 +12°C° 0.9 mm 2 mps 747 mmHg 98%

    Tomorrow, 20 July, Saturday

    Time Temperature Precipitation Wind Pressure Humidity
    00:00 +12°C° 0.9 mm 2 mps 746 mmHg 98%
    01:00 +12°C° 0.1 mm 2 mps 746 mmHg 98%
    02:00 +10°C° 0.1 mm 2 mps 746 mmHg 97%
    03:00 +11°C° 0.1 mm 1 mps 746 mmHg 97%
    04:00 +10°C° 0 mm 2 mps 746 mmHg 96%
    05:00 +10°C° 0 mm 2 mps 746 mmHg 95%
    06:00 +10°C° 0 mm 2 mps 746 mmHg 95%
    07:00 +10°C° 0 mm 2 mps 746 mmHg 93%
    08:00 +12°C° 0 mm 2 mps 747 mmHg 92%
    09:00 +11°C° 0 mm 3 mps 747 mmHg 90%
    10:00 +13°C° 0 mm 2 mps 747 mmHg 82%
    11:00 +14°C° 0 mm 2 mps 747 mmHg 74%
    12:00 +16°C° 0 mm 1 mps 747 mmHg 66%
    13:00 +16°C° 0.1 mm 1 mps 747 mmHg 65%
    14:00 +16°C° 0.1 mm 1 mps 747 mmHg 64%
    15:00 +16°C° 0.1 mm 2 mps 747 mmHg 63%
    16:00 +14°C° 0 mm 2 mps 747 mmHg 69%
    17:00 +12°C° 0 mm 3 mps 747 mmHg 76%
    18:00 +10°C° 0 mm 3 mps 748 mmHg 82%
    19:00 +9°C° 0 mm 3 mps 748 mmHg 86%
    20:00 +8°C° 0 mm 3 mps 748 mmHg 90%
    21:00 +8°C° 0 mm 2 mps 749 mmHg 93%
    22:00 +8°C° 0 mm 2 mps 749 mmHg 93%
    23:00 +7°C° 0 mm 2 mps 749 mmHg 93%

    Day after tomorrow, 21 July, Sunday

    Time Temperature Precipitation Wind Pressure Humidity
    00:00 +7°C° 0 mm 2 mps 749 mmHg 93%
    01:00 +7°C° 0 mm 2 mps 749 mmHg 94%
    02:00 +7°C° 0 mm 2 mps 749 mmHg 94%
    03:00 +6°C° 0 mm 2 mps 749 mmHg 95%
    04:00 +6°C° 0 mm 2 mps 750 mmHg 95%
    05:00 +6°C° 0 mm 2 mps 750 mmHg 95%
    06:00 +6°C° 0 mm 2 mps 750 mmHg 94%
    07:00 +7°C° 0 mm 2 mps 750 mmHg 90%
    08:00 +8°C° 0 mm 2 mps 751 mmHg 85%
    09:00 +9°C° 0 mm 2 mps 751 mmHg 80%
    10:00 +12°C° 0 mm 1 mps 751 mmHg 70%
    11:00 +14°C° 0 mm 1 mps 751 mmHg 61%
    12:00 +16°C° 0 mm 0 mps 751 mmHg 51%
    13:00 +16°C° 0 mm 1 mps 751 mmHg 53%
    14:00 +16°C° 0 mm 1 mps 751 mmHg 54%
    15:00 +15°C° 0 mm 2 mps 751 mmHg 56%
    16:00 +13°C° 0 mm 1 mps 751 mmHg 68%
    17:00 +11°C° 0 mm 1 mps 752 mmHg 81%
    18:00 +8°C° 0 mm 0 mps 752 mmHg 93%
    19:00 +8°C° 0 mm 1 mps 753 mmHg 94%
    20:00 +8°C° 0 mm 1 mps 754 mmHg 95%
    21:00 +7°C° 0 mm 1 mps 754 mmHg 95%
    22:00 +6°C° 0 mm 2 mps 755 mmHg 95%
    23:00 +6°C° 0 mm 2 mps 755 mmHg 95%

    22 July, Monday

    Time Temperature Precipitation Wind Pressure Humidity
    00:00 +6°C° 0 mm 2 mps 755 mmHg 95%
    01:00 +6°C° 0 mm 2 mps 755 mmHg 96%
    02:00 +6°C° 0 mm 2 mps 755 mmHg 96%
    03:00 +6°C° 0 mm 2 mps 755 mmHg 96%
    04:00 +6°C° 0 mm 2 mps 755 mmHg 96%
    05:00 +5°C° 0 mm 2 mps 756 mmHg 96%
    06:00 +5°C° 0 mm 2 mps 756 mmHg 97%
    07:00 +6°C° 0 mm 2 mps 756 mmHg 94%
    08:00 +8°C° 0 mm 2 mps 757 mmHg 91%
    09:00 +9°C° 0 mm 2 mps 757 mmHg 88%
    10:00 +10°C° 0 mm 2 mps 757 mmHg 82%
    11:00 +12°C° 0 mm 3 mps 757 mmHg 77%
    12:00 +13°C° 0 mm 3 mps 757 mmHg 72%
    13:00 +13°C° 0 mm 3 mps 757 mmHg 71%
    14:00 +13°C° 0 mm 3 mps 756 mmHg 70%
    15:00 +13°C° 0 mm 3 mps 756 mmHg 69%
    16:00 +12°C° 0 mm 3 mps 756 mmHg 78%
    17:00 +10°C° 0 mm 3 mps 757 mmHg 87%
    18:00 +9°C° 0 mm 3 mps 757 mmHg 96%
    19:00 +8°C° 0 mm 2 mps 757 mmHg 96%
    20:00 +8°C° 0 mm 2 mps 757 mmHg 96%
    21:00 +8°C° 0 mm 2 mps 758 mmHg 96%
    22:00 +8°C° 0 mm 2 mps 758 mmHg 96%
    23:00 +8°C° 0 mm 2 mps 758 mmHg 95%

    23 July, Tuesday

    Time Temperature Precipitation Wind Pressure Humidity
    00:00 +8°C° 0 mm 2 mps 758 mmHg 95%
    01:00 +8°C° 0 mm 3 mps 758 mmHg 95%
    02:00 +8°C° 0 mm 3 mps 758 mmHg 96%
    03:00 +7°C° 0 mm 3 mps 757 mmHg 97%
    04:00 +7°C° 0 mm 3 mps 758 mmHg 96%
    05:00 +7°C° 0 mm 3 mps 758 mmHg 96%
    06:00 +7°C° 0 mm 3 mps 758 mmHg 96%
    07:00 +8°C° 0 mm 3 mps 758 mmHg 93%
    08:00 +8°C° 0 mm 4 mps 758 mmHg 91%
    09:00 +10°C° 0 mm 4 mps 758 mmHg 88%
    10:00 +11°C° 0 mm 4 mps 758 mmHg 84%
    11:00 +12°C° 0 mm 4 mps 758 mmHg 79%
    12:00 +13°C° 0 mm 5 mps 757 mmHg 75%
    13:00 +13°C° 0.1 mm 5 mps 757 mmHg 77%
    14:00 +12°C° 0.1 mm 5 mps 757 mmHg 79%
    15:00 +12°C° 0.1 mm 5 mps 756 mmHg 81%
    16:00 +12°C° 0.7 mm 4 mps 756 mmHg 85%
    17:00 +11°C° 0.7 mm 4 mps 756 mmHg 90%
    18:00 +10°C° 0.7 mm 3 mps 757 mmHg 95%
    19:00 +10°C° 4.5 mm 4 mps 757 mmHg 96%
    20:00 +10°C° 4.5 mm 4 mps 757 mmHg 97%
    21:00 +9°C° 4.5 mm 5 mps 757 mmHg 98%
    22:00 +9°C° 4.7 mm 5 mps 757 mmHg 98%
    23:00 +9°C° 4.7 mm 5 mps 757 mmHg 97%

    24 July, Wednesday

    Time Temperature Precipitation Wind Pressure Humidity
    00:00 +10°C° 4.7 mm 5 mps 757 mmHg 96%
    01:00 +10°C° 0.8 mm 4 mps 757 mmHg 97%
    02:00 +10°C° 0.8 mm 4 mps 757 mmHg 97%
    03:00 +10°C° 0.8 mm 3 mps 757 mmHg 97%
    04:00 +10°C° 0.6 mm 4 mps 757 mmHg 97%
    05:00 +10°C° 0.6 mm 4 mps 757 mmHg 96%
    06:00 +10°C° 0.6 mm 4 mps 757 mmHg 96%
    07:00 +10°C° 0.4 mm 4 mps 758 mmHg 95%
    08:00 +11°C° 0.4 mm 4 mps 758 mmHg 95%
    09:00 +11°C° 0.4 mm 4 mps 758 mmHg 94%
    10:00 +11°C° 0.3 mm 4 mps 758 mmHg 93%
    11:00 +12°C° 0.3 mm 4 mps 758 mmHg 91%
    12:00 +12°C° 0.3 mm 4 mps 758 mmHg 90%
    13:00 +12°C° 0.2 mm 4 mps 758 mmHg 89%
    14:00 +12°C° 0.2 mm 4 mps 758 mmHg 88%
    15:00 +12°C° 0.2 mm 4 mps 757 mmHg 87%
    16:00 +11°C° 0.2 mm 4 mps 758 mmHg 90%
    17:00 +10°C° 0.2 mm 3 mps 758 mmHg 93%
    18:00 +9°C° 0.2 mm 3 mps 758 mmHg 96%
    19:00 +8°C° 0.2 mm 3 mps 758 mmHg 96%
    20:00 +8°C° 0.2 mm 3 mps 759 mmHg 97%
    21:00 +8°C° 0.2 mm 3 mps 759 mmHg 97%
    22:00 +8°C° 0.2 mm 2 mps 759 mmHg 97%
    23:00 +7°C° 0.2 mm 2 mps 759 mmHg 97%
    Show more